Location: Flensburg
(54.6357°N, 9.5142°E)
Time: 17:16:59
(UTC+01:00)

OTV 5 (USA 277) - Visible Passes

Search period start: 19 February 2018 00:00
Search period end: 01 March 2018 00:00
Orbit: 404 x 417 km, 43.0° (Epoch: 07 September)

Date Brightness Start Highest point End Pass type
(mag) Time Alt. Az. Time Alt. Az. Time Alt. Az.
24 Feb ? 06:39:40 10° S 06:40:35 11° S 06:41:31 10° SSE visible
26 Feb ? 06:34:11 10° SSW 06:35:18 11° S 06:36:25 10° SSE visible
27 Feb ? 05:43:21 10° SSW 05:44:28 11° S 05:45:35 10° SSE visible
28 Feb ? 04:54:23 10° SSE 04:54:23 10° SSE 04:54:33 10° SSE visible
